ONEWEB-0501

Satellite information

Favourite Embed

Satellite Type and Status

PAYLOADIN ORBIT

Key statistics

Satellite ONEWEB-0501 at a glance.

Uptime

1103

Days in orbit

Revolutions

≈ 13.2

Per day

Orbit

LEO

Low Earth Orbit

Inclination

87.9

Latest

Satellite identification and parameters

Extended collection of information and parameters for ONEWEB-0501.

Object identification

Identified? True

Debris? False

Object name: ONEWEB-0501

International designator: 2022-138G

Object number (NORAD): 54119

Object ID (CCSDS): 54119

Country: UNITED KINGDOM (UK)

Current information (Y/N): Y

RCS size: LARGE

Orbital parameters

Period: 109.114 minutes

Inclination: 87.9254 deg

SMA: 7563.905 km

Apoapsis: 1187.278 km

Periapsis: 1184.263 km

RAAN: 351.2397 deg

Eccentricy: 0.00019931

Argument of periapsis: 110.299 deg

Mean anomaly: 249.8357 deg

Mean motion: 13.19725615 rev/day

Mean motion (dot): 0.00000087 rev/day2

B* drag term: 0.00018476438 1/REarth

Two-line elements (TLE)

Creation date: Oct. 28, 2025, 2:18 a.m.

Reference frame: TEME

Reference center: EARTH

Epoch: Oct. 27, 2025, 1:26 p.m. UTC

TLE line 0: 0 ONEWEB-0501

TLE line 1: 1 54119U 22138G 25300.56026349 .00000087 00000-0 18476-3 0 9995

TLE line 2: 2 54119 87.9254 351.2397 0001993 110.2990 249.8357 13.19725615146123

Live tracking on map

Real-time ground track for satellite ONEWEB-0501.

In-orbit conjunctions

There are no conjunctions computed for ONEWEB-0501, at the moment. Check back to stay up to date, as we update our databases every day.

Go to all conjunctions

Associated space launch

A batch of 36 satellites for the OneWeb satellite constellation, which is intended to provide global Internet broadband service for individual consumers. The constellation is planned to have around 648 microsatellites (of which 60 are spares), around 150 kg each, operating in Ku-band from low Earth orbit.

ONEWEB-0501 was lifted into orbit during the mission ‘LVM-3 | OneWeb 14’, on board a LVM-3 (GSLV Mk III) space rocket.

The launch took place on Oct. 22, 2022, 6:37 p.m. from Satish Dhawan Space Centre Second Launch Pad.

For more information about the launch, click the button.

Launch to space LVM-3 | OneWeb 14
LVM-3 | OneWeb 14

Agency: N/A

Status: Launch Successful

Launch date: Oct. 22, 2022, 6:37 p.m. UTC

Rocket: LVM-3 (GSLV Mk III)

Launch pad: Satish Dhawan Space Centre Second Launch Pad

Location: Satish Dhawan Space Centre, India

...

Latest news about this satellite

News about space launch
OneWeb resumes launches with first commercial GSLV Mk.III

OneWeb has resumed deployment of its satellite constellation with the launch of 36 satellites aboard India’s GSLV Mk.III rocket. The mission – which marks the first commercial launch for the GSLV – lifted off from the Satish Dhawan Space Centre at 12:07 A...

News about space launch
OneWeb set to resume launches on Indian rocket

After the suspension of commercial launches on Russia’s Soyuz rocket earlier this year, OneWeb is set to resume deploying satellites for its global internet network Saturday with an Indian GSLV Mk.3 launcher, one of five OneWeb missions planned before mid...

News about space launch
OneWeb launch sign of greater role for India in commercial launch market

The launch of a set of OneWeb satellites on an Indian rocket could be the harbinger of a greater role India will play in a commercial launch industry straining to satisfy demand.


Newsletter sign-up

Weekly statistics, charts and insights to help you stay on top of the space industry.